This is the latest recevied weather packets stored in our database for station/object W0CHP-13. If no packets are shown the sender has not sent any weather packets the latest 10 day(s).
| Time | Temp. | Humidity | Pressure | Rain* | Wind** | Luminosity | Snow |
|---|---|---|---|---|---|---|---|
| 1777299617 | 14.44° C | 75% | 1001.6 hPa | 0 mm | - | 80 W/m² | - |
| 1777299016 | 14.44° C | 76% | 1001.6 hPa | 0 mm | - | 66 W/m² | - |
| 1777298418 | 14.44° C | 74% | 1001.9 hPa | 0 mm | - | 52 W/m² | - |
| 1777297816 | 14.44° C | 74% | 1002 hPa | 0 mm | - | 94 W/m² | - |
| 1777297218 | 14.44° C | 75% | 1002.1 hPa | 0 mm | - | 60 W/m² | - |
| 1777296617 | 13.89° C | 75% | 1002.7 hPa | 0 mm | - | 46 W/m² | - |
| 1777296015 | 13.89° C | 76% | 1002.9 hPa | 0 mm | - | 35 W/m² | - |
| 1777295417 | 13.89° C | 76% | 1003.4 hPa | 0 mm | - | 23 W/m² | - |
| 1777294815 | 13.89° C | 76% | 1003.1 hPa | 0 mm | - | 31 W/m² | - |
| 1777294218 | 13.89° C | 77% | 1003.1 hPa | 0 mm | - | 28 W/m² | - |
| 1777293616 | 13.89° C | 78% | 1003.4 hPa | 0 mm | - | 46 W/m² | - |
| 1777293018 | 13.89° C | 79% | 1003.4 hPa | 0 mm | - | 42 W/m² | - |
| 1777292416 | 13.33° C | 80% | 1003.5 hPa | 0 mm | - | 36 W/m² | - |
| 1777291815 | 13.33° C | 81% | 1003.5 hPa | 0 mm | - | 29 W/m² | - |
| 1777291217 | 13.33° C | 81% | 1003.8 hPa | 0 mm | - | 15 W/m² | - |
| 1777290615 | 12.78° C | 82% | 1004.3 hPa | 0 mm | - | 11 W/m² | - |
| 1777290018 | 12.78° C | 82% | 1004.4 hPa | 0 mm | - | 6 W/m² | - |
| 1777289416 | 12.78° C | 81% | 1004.4 hPa | 0 mm | - | 6 W/m² | - |
| 1777288818 | 12.78° C | 81% | 1004 hPa | 0 mm | - | 4 W/m² | - |
| 1777288216 | 12.78° C | 81% | 1004.4 hPa | 0 mm | - | 2 W/m² | - |
| 1777287619 | 12.78° C | 81% | 1004.5 hPa | 0 mm | - | 0 W/m² | - |
| 1777287017 | 12.78° C | 81% | 1004.7 hPa | 0 mm | - | 0 W/m² | - |
| 1777286415 | 12.78° C | 82% | 1004.6 hPa | 0 mm | - | 0 W/m² | - |
| 1777285818 | 12.78° C | 81% | 1004.7 hPa | 0.25 mm | - | 0 W/m² | - |
| 1777285216 | 12.78° C | 81% | 1004.7 hPa | 0.76 mm | - | 0 W/m² | - |
* Rain latest hour (hover to see other rain measurements)
** Current wind speed in m/s (hover to see current wind gust speed)